Regional Weather Roundup
Issued by NWS

Home | Current Version | Previous Version | Text Only | Print | Product List | Glossary Off
Versions: 1 2 3 4 5 6 7 8 9 10 11 12 13 14 15 16 17 18 19 20 21 22 23 24 25 26 27 28 29 30 31 32 33 34 35 36 37 38 39 40 41 42 43 44 45 46 47 48 49 50

000
ASUS45 KSLC 241010
RWRUT

UTAH REGIONAL WEATHER ROUNDUP
NATIONAL WEATHER SERVICE SALT LAKE CITY UT
400 AM MDT WED MAY 24 2017

UTZ001>011-023>025-241100-

NORTHERN UTAH

CITY           SKY/WX    TMP DP  RH WIND       PRES   REMARKS
BRIGHAM CITY   CLEAR     53  47  78 CALM      29.91F
HILL AFB       CLEAR     57  34  42 E15       29.93F
LOGAN          CLEAR     48  42  80 CALM      29.91F
OGDEN          CLEAR     55  37  50 S12       29.91F
SALT LAKE CITY CLEAR     61  38  42 SE9       29.91F
TOOELE VALLEY  CLEAR     61  37  41 SE7       29.92F
WENDOVER       CLEAR     63  37  38 W10       29.90F
HEBER CITY     CLEAR     39  34  81 CALM      30.02F
WEST JORDAN    CLEAR     60  47  61 S5        29.94F

$$

UTZ011>015-024>027-241100-

CENTRAL/NORTHEAST UTAH

CITY           SKY/WX    TMP DP  RH WIND       PRES   REMARKS
PROVO AIRPORT  CLEAR     50  39  66 E6        29.98S
MOAB/CANYONLAN CLEAR     50  26  39 CALM      29.96F
DELTA          CLEAR     50  37  62 NE5       29.97F
PRICE          CLEAR     50  33  52 NE10      30.03F
ROOSEVELT      CLEAR     41  36  81 W7        30.01F
VERNAL         CLEAR     47  35  63 W3        29.99F

$$

UTZ013>016-019>022-027-241100-

SOUTHERN UTAH

CITY           SKY/WX    TMP DP  RH WIND       PRES   REMARKS
BRYCE CANYON   CLEAR     34  27  75 CALM      30.18F
CEDAR CITY     CLEAR     52  32  46 CALM      30.02F
MILFORD        CLEAR     48  32  53 S5        29.99F
ST GEORGE      SUNNY     64  32  30 S3        29.88S
HANKSVILLE     CLEAR     54  28  37 CALM      29.99F
BLANDING       CLEAR     46  31  57 NW6       30.13F

$$

REGIONAL REPORTS     COLORADO/ARIZONA

CITY           SKY/WX    TMP DP  RH WIND       PRES   REMARKS
CRAIG, CO      CLOUDY    34  30  85 CALM      30.05F
GRAND JUNCTION CLEAR     50  32  50 SE12      30.01F
RIFLE, CO      CLEAR     40  31  70 NE3       30.07F
MONTROSE, CO   CLEAR     45  32  60 SE7       30.09F
CORTEZ, CO     CLEAR     41  34  76 E6        30.09F
COLORADO CITY    N/A     50  32  50 S3        30.04S
PAGE, AZ       CLEAR     64  36  35 W5        29.97F
GRAND CANYON   PTCLDY    36  27  69 CALM      30.15F
KINGMAN, AZ    CLEAR     58  23  26 MISG      29.92S
FLAGSTAFF, AZ  CLEAR     39  26  59 CALM      30.17F

$$

REGIONAL REPORTS    NEVADA/IDAHO/WYOMING

CITY           SKY/WX    TMP DP  RH WIND       PRES   REMARKS
LAS VEGAS, NV  CLEAR     84  20   9 S9        29.78F
ELY, NY        CLEAR     43  28  55 S15       30.08F
ELKO, NV       CLEAR     49  39  68 E3        29.97F
POCATELLO, ID  CLEAR     65  37  35 S14       29.84F
BURLEY, ID     CLEAR     60  39  45 S15       29.81F
FORT BRIDGER,    N/A     55  28  35 W10       30.06F
EVANSTON, WY   CLOUDY    46  30  53 SW10      30.06F
ROCK SPRINGS,  CLEAR     49  33  54 SW12      30.00F
KEMMERER, WY     N/A     46  32  57 SW3       30.04F

$$



USA.gov is the U.S. government's official web portal to all federal, state and local government web resources and services.